Station Historical Data
Daily Summary for May 1, 2011 Units:  English    Metric   Both
« Previous Day
Next Day »
Daily Weekly Monthly Yearly Custom
  High: Low: Average:
Temperature: 76.4 °F 61.4 °F 68.8 °F
Dew Point: 64.1 °F 54.1 °F 60.2 °F
Humidity: 95% 59% 75%
Wind Speed: 20.0mph 1.0mph 6.4mph
Wind Gust: 23.0mph - -
Wind- - SSE
Pressure: 30.11 in 29.91 in -
Precipitation: 0.24 in    
Historical Graphs
 
 
Tabular Data for May 1, 2011
Time Temperature Dew Point Pressure Wind Wind Speed Wind Gust Humidity Rainfall Rate (Hourly) Conditions
00:00 68.6 °F 54.6 °F 29.97 in SE 4.0 mph 6.0 mph 61% 0.00 in
00:01 68.6 °F 55.1 °F 29.97 in SE 3.0 mph 4.0 mph 62% 0.00 in
00:02 68.6 °F 54.6 °F 29.97 in SSE 6.0 mph 6.0 mph 61% 0.00 in
00:07 68.6 °F 55.1 °F 29.97 in SE 3.0 mph 5.0 mph 62% 0.00 in
00:12 68.8 °F 54.8 °F 29.96 in ESE 3.0 mph 5.0 mph 61% 0.00 in
00:17 68.9 °F 54.5 °F 29.96 in SE 4.0 mph 5.0 mph 60% 0.00 in
00:22 69.1 °F 54.2 °F 29.95 in SE 4.0 mph 6.0 mph 59% 0.00 in
00:27 69.2 °F 54.3 °F 29.95 in SE 5.0 mph 6.0 mph 59% 0.00 in
00:28 69.2 °F 54.3 °F 29.95 in SE 3.0 mph 6.0 mph 59% 0.00 in
00:33 69.0 °F 54.5 °F 29.95 in ESE 6.0 mph 7.0 mph 60% 0.00 in
00:36 69.2 °F 54.3 °F 29.95 in SE 8.0 mph 8.0 mph 59% 0.00 in
00:38 69.2 °F 54.7 °F 29.95 in SE 7.0 mph 8.0 mph 60% 0.00 in
00:43 69.2 °F 54.7 °F 29.95 in SE 7.0 mph 8.0 mph 60% 0.00 in
00:48 69.1 °F 54.7 °F 29.95 in SE 4.0 mph 6.0 mph 60% 0.00 in
00:53 68.9 °F 54.5 °F 29.95 in ESE 4.0 mph 7.0 mph 60% 0.00 in
00:58 68.8 °F 54.8 °F 29.95 in SE 4.0 mph 7.0 mph 61% 0.00 in
01:03 68.5 °F 54.5 °F 29.96 in SE 4.0 mph 5.0 mph 61% 0.00 in
01:08 68.4 °F 54.9 °F 29.95 in SE 3.0 mph 6.0 mph 62% 0.00 in
01:09 68.4 °F 54.9 °F 29.95 in SE 4.0 mph 5.0 mph 62% 0.00 in
01:14 68.3 °F 54.8 °F 29.95 in SE 4.0 mph 5.0 mph 62% 0.00 in
01:19 68.3 °F 54.8 °F 29.94 in SE 3.0 mph 5.0 mph 62% 0.00 in
01:24 68.3 °F 54.8 °F 29.94 in SSE 6.0 mph 7.0 mph 62% 0.00 in
01:29 68.2 °F 54.7 °F 29.94 in SSE 4.0 mph 7.0 mph 62% 0.00 in
01:34 68.1 °F 54.6 °F 29.94 in SE 4.0 mph 6.0 mph 62% 0.00 in
01:36 68.1 °F 54.6 °F 29.94 in SE 4.0 mph 6.0 mph 62% 0.00 in
01:41 68.0 °F 54.5 °F 29.94 in SE 5.0 mph 5.0 mph 62% 0.00 in
01:46 68.0 °F 54.1 °F 29.93 in ESE 5.0 mph 9.0 mph 61% 0.00 in
01:51 68.0 °F 54.5 °F 29.93 in SE 6.0 mph 8.0 mph 62% 0.00 in
01:53 67.9 °F 54.8 °F 29.93 in ESE 4.0 mph 7.0 mph 63% 0.00 in
01:56 67.8 °F 54.8 °F 29.93 in SE 4.0 mph 7.0 mph 63% 0.00 in
01:58 67.7 °F 54.2 °F 29.93 in ESE 5.0 mph 7.0 mph 62% 0.00 in
02:02 67.7 °F 54.2 °F 29.93 in SE 6.0 mph 11.0 mph 62% 0.00 in
02:07 67.7 °F 54.7 °F 29.94 in SE 8.0 mph 8.0 mph 63% 0.00 in
02:12 67.8 °F 54.3 °F 29.94 in SE 5.0 mph 6.0 mph 62% 0.00 in
02:17 67.9 °F 54.4 °F 29.94 in SE 3.0 mph 7.0 mph 62% 0.00 in
02:22 68.0 °F 54.5 °F 29.94 in SSE 4.0 mph 6.0 mph 62% 0.00 in
02:27 67.9 °F 54.8 °F 29.94 in SE 6.0 mph 6.0 mph 63% 0.00 in
02:28 67.9 °F 54.8 °F 29.94 in SE 5.0 mph 6.0 mph 63% 0.00 in
02:33 67.9 °F 54.8 °F 29.94 in SE 8.0 mph 8.0 mph 63% 0.00 in
02:36 67.9 °F 54.4 °F 29.94 in ESE 9.0 mph 9.0 mph 62% 0.00 in
02:41 67.9 °F 54.8 °F 29.94 in ESE 5.0 mph 6.0 mph 63% 0.00 in
02:46 68.0 °F 54.5 °F 29.94 in SE 4.0 mph 9.0 mph 62% 0.00 in
02:51 68.1 °F 55.0 °F 29.94 in SE 4.0 mph 11.0 mph 63% 0.00 in
02:52 68.1 °F 55.0 °F 29.94 in SE 6.0 mph 11.0 mph 63% 0.00 in
02:56 68.1 °F 54.6 °F 29.94 in SSE 5.0 mph 7.0 mph 62% 0.00 in
02:57 68.1 °F 55.0 °F 29.94 in SSE 5.0 mph 7.0 mph 63% 0.00 in
02:58 68.1 °F 55.0 °F 29.94 in SE 7.0 mph 7.0 mph 63% 0.00 in
03:01 68.2 °F 54.7 °F 29.94 in SE 6.0 mph 9.0 mph 62% 0.00 in
03:02 68.2 °F 54.7 °F 29.94 in SSE 6.0 mph 9.0 mph 62% 0.00 in
03:07 68.1 °F 55.0 °F 29.94 in SE 5.0 mph 6.0 mph 63% 0.00 in
03:12 67.9 °F 54.8 °F 29.94 in SE 5.0 mph 8.0 mph 63% 0.00 in
03:17 67.8 °F 55.2 °F 29.94 in SE 3.0 mph 5.0 mph 64% 0.00 in
03:22 67.7 °F 55.5 °F 29.95 in SSE 5.0 mph 6.0 mph 65% 0.00 in
03:27 67.6 °F 55.4 °F 29.94 in SE 7.0 mph 7.0 mph 65% 0.00 in
03:28 67.6 °F 55.4 °F 29.94 in SSE 8.0 mph 8.0 mph 65% 0.00 in
03:33 67.6 °F 55.4 °F 29.94 in SSE 5.0 mph 8.0 mph 65% 0.00 in
03:34 67.7 °F 55.5 °F 29.94 in SSE 6.0 mph 8.0 mph 65% 0.00 in
03:39 67.7 °F 55.5 °F 29.94 in SSE 6.0 mph 8.0 mph 65% 0.00 in
03:44 67.7 °F 55.5 °F 29.94 in SE 5.0 mph 8.0 mph 65% 0.00 in
03:49 67.8 °F 55.6 °F 29.93 in SSE 8.0 mph 12.0 mph 65% 0.00 in
03:54 67.9 °F 55.3 °F 29.93 in SE 8.0 mph 10.0 mph 64% 0.00 in
03:59 67.9 °F 55.7 °F 29.93 in SE 5.0 mph 11.0 mph 65% 0.00 in
04:04 67.9 °F 56.1 °F 29.93 in SSE 6.0 mph 10.0 mph 66% 0.00 in
04:09 67.9 °F 56.1 °F 29.93 in SSE 9.0 mph 9.0 mph 66% 0.00 in
04:14 68.0 °F 56.7 °F 29.93 in SSW 6.0 mph 10.0 mph 67% 0.00 in
04:19 68.0 °F 56.7 °F 29.92 in South 9.0 mph 10.0 mph 67% 0.00 in
04:24 67.9 °F 57.0 °F 29.92 in South 10.0 mph 10.0 mph 68% 0.00 in
04:25 67.9 °F 57.0 °F 29.92 in SSE 11.0 mph 11.0 mph 68% 0.00 in
04:29 67.9 °F 57.0 °F 29.92 in SSE 13.0 mph 13.0 mph 68% 0.00 in
04:30 67.9 °F 57.0 °F 29.92 in South 11.0 mph 13.0 mph 68% 0.00 in
04:35 67.8 °F 57.3 °F 29.92 in SSE 10.0 mph 12.0 mph 69% 0.00 in
04:40 67.9 °F 57.4 °F 29.92 in SSE 5.0 mph 14.0 mph 69% 0.00 in
04:45 67.7 °F 57.6 °F 29.92 in SSE 13.0 mph 13.0 mph 70% 0.00 in
04:50 67.7 °F 58.0 °F 29.91 in SE 10.0 mph 14.0 mph 71% 0.00 in
04:55 67.6 °F 57.9 °F 29.91 in ESE 7.0 mph 12.0 mph 71% 0.00 in
04:56 67.6 °F 57.9 °F 29.91 in SSE 5.0 mph 12.0 mph 71% 0.00 in
04:57 67.6 °F 57.9 °F 29.91 in South 10.0 mph 15.0 mph 71% 0.00 in
05:01 67.5 °F 58.2 °F 29.91 in SSE 9.0 mph 10.0 mph 72% 0.00 in
05:06 67.3 °F 58.0 °F 29.92 in SSE 7.0 mph 10.0 mph 72% 0.00 in
05:11 67.3 °F 58.0 °F 29.92 in SSE 5.0 mph 8.0 mph 72% 0.00 in
05:16 67.0 °F 58.5 °F 29.91 in SSE 7.0 mph 8.0 mph 74% 0.00 in
05:21 66.9 °F 58.3 °F 29.92 in South 4.0 mph 10.0 mph 74% 0.00 in
05:26 66.9 °F 58.3 °F 29.92 in SE 9.0 mph 9.0 mph 74% 0.00 in
05:31 66.8 °F 58.6 °F 29.91 in SE 5.0 mph 11.0 mph 75% 0.00 in
05:32 66.7 °F 58.5 °F 29.91 in SE 6.0 mph 10.0 mph 75% 0.00 in
05:33 66.7 °F 58.5 °F 29.91 in ESE 7.0 mph 10.0 mph 75% 0.00 in
05:36 66.7 °F 58.5 °F 29.91 in SSE 4.0 mph 10.0 mph 75% 0.00 in
05:37 66.7 °F 58.5 °F 29.92 in SSW 3.0 mph 10.0 mph 75% 0.00 in
05:41 66.6 °F 58.4 °F 29.93 in SSW 4.0 mph 8.0 mph 75% 0.00 in
05:42 66.6 °F 58.4 °F 29.93 in SSE 5.0 mph 7.0 mph 75% 0.00 in
05:47 66.5 °F 58.7 °F 29.94 in SSW 4.0 mph 5.0 mph 76% 0.00 in
05:52 66.5 °F 58.7 °F 29.94 in South 3.0 mph 7.0 mph 76% 0.00 in
05:53 66.4 °F 58.6 °F 29.94 in South 4.0 mph 7.0 mph 76% 0.00 in
05:57 66.2 °F 58.8 °F 29.93 in SE 2.0 mph 6.0 mph 77% 0.00 in
05:58 66.1 °F 58.7 °F 29.93 in SE 5.0 mph 6.0 mph 77% 0.00 in
06:03 66.0 °F 59.0 °F 29.94 in SE 3.0 mph 7.0 mph 78% 0.00 in
06:08 65.8 °F 59.1 °F 29.93 in SE 5.0 mph 8.0 mph 79% 0.00 in
06:13 65.6 °F 58.9 °F 29.93 in SSE 5.0 mph 7.0 mph 79% 0.00 in
06:18 65.7 °F 59.0 °F 29.93 in South 3.0 mph 9.0 mph 79% 0.00 in
06:19 65.7 °F 59.0 °F 29.93 in SSE 7.0 mph 9.0 mph 79% 0.00 in
06:24 65.8 °F 59.5 °F 29.94 in South 5.0 mph 7.0 mph 80% 0.00 in
06:29 65.8 °F 59.5 °F 29.95 in SSE 2.0 mph 7.0 mph 80% 0.00 in
06:34 65.9 °F 59.6 °F 29.96 in SSE 5.0 mph 7.0 mph 80% 0.00 in
06:35 65.9 °F 59.6 °F 29.96 in South 8.0 mph 8.0 mph 80% 0.00 in
06:36 65.9 °F 59.6 °F 29.96 in South 3.0 mph 8.0 mph 80% 0.00 in
06:40 66.0 °F 59.7 °F 29.96 in SSW 4.0 mph 8.0 mph 80% 0.00 in
06:41 66.0 °F 59.7 °F 29.97 in SSW 6.0 mph 9.0 mph 80% 0.00 in
06:46 66.0 °F 59.7 °F 29.97 in SSW 4.0 mph 6.0 mph 80% 0.00 in
06:51 66.0 °F 60.0 °F 29.97 in SSE 5.0 mph 7.0 mph 81% 0.00 in
06:54 66.0 °F 60.0 °F 29.97 in SSE 3.0 mph 8.0 mph 81% 0.00 in
06:56 65.9 °F 59.9 °F 29.97 in SE 5.0 mph 6.0 mph 81% 0.00 in
06:57 65.9 °F 59.9 °F 29.97 in SSE 4.0 mph 6.0 mph 81% 0.00 in
06:58 65.9 °F 59.9 °F 29.97 in South 3.0 mph 6.0 mph 81% 0.00 in
07:03 65.8 °F 60.2 °F 29.97 in South 7.0 mph 7.0 mph 82% 0.00 in
07:06 65.8 °F 60.2 °F 29.97 in South 4.0 mph 10.0 mph 82% 0.00 in
07:08 65.7 °F 60.1 °F 29.97 in SE 6.0 mph 7.0 mph 82% 0.00 in
07:11 65.7 °F 60.4 °F 29.97 in SSE 7.0 mph 8.0 mph 83% 0.00 in
07:16 65.6 °F 60.3 °F 29.97 in SSE 4.0 mph 8.0 mph 83% 0.00 in
07:21 65.6 °F 60.3 °F 29.97 in SE 5.0 mph 8.0 mph 83% 0.00 in
07:26 65.6 °F 60.6 °F 29.98 in SE 9.0 mph 11.0 mph 84% 0.00 in
07:27 65.6 °F 60.6 °F 29.98 in South 8.0 mph 11.0 mph 84% 0.00 in
07:31 65.6 °F 60.6 °F 30.00 in SW 3.0 mph 6.0 mph 84% 0.00 in
07:32 65.6 °F 60.6 °F 30.00 in WSW 6.0 mph 6.0 mph 84% 0.00 in
07:33 65.6 °F 60.6 °F 30.01 in WSW 4.0 mph 6.0 mph 84% 0.00 in
07:34 65.6 °F 60.6 °F 30.02 in WNW 5.0 mph 6.0 mph 84% 0.00 in
07:37 65.6 °F 60.6 °F 30.03 in NW 4.0 mph 8.0 mph 84% 0.00 in
07:38 65.6 °F 60.6 °F 30.03 in NW 5.0 mph 8.0 mph 84% 0.00 in
07:40 65.6 °F 60.6 °F 30.05 in WNW 8.0 mph 8.0 mph 84% 0.00 in
07:43 65.6 °F 60.3 °F 30.05 in WNW 10.0 mph 11.0 mph 83% 0.00 in
07:44 65.6 °F 60.3 °F 30.05 in NNW 7.0 mph 11.0 mph 83% 0.00 in
07:45 65.6 °F 60.3 °F 30.05 in NW 9.0 mph 11.0 mph 83% 0.00 in
07:50 65.8 °F 60.5 °F 30.06 in WNW 7.0 mph 13.0 mph 83% 0.00 in
07:51 65.8 °F 60.5 °F 30.06 in NW 11.0 mph 11.0 mph 83% 0.00 in
07:52 65.8 °F 60.2 °F 30.06 in WNW 11.0 mph 13.0 mph 82% 0.00 in
07:55 65.8 °F 60.5 °F 30.06 in WNW 6.0 mph 13.0 mph 83% 0.00 in
07:56 65.7 °F 60.4 °F 30.06 in NNW 10.0 mph 13.0 mph 83% 0.00 in
07:59 65.6 °F 60.3 °F 30.06 in WNW 4.0 mph 10.0 mph 83% 0.00 in
08:01 65.6 °F 60.3 °F 30.07 in NW 4.0 mph 9.0 mph 83% 0.00 in
08:06 65.5 °F 60.2 °F 30.07 in NNW 5.0 mph 8.0 mph 83% 0.00 in
08:11 65.6 °F 60.0 °F 30.06 in NNW 2.0 mph 9.0 mph 82% 0.00 in
08:16 65.2 °F 59.9 °F 30.06 in NNW 6.0 mph 7.0 mph 83% 0.11 in
08:21 64.4 °F 60.1 °F 30.08 in NW 6.0 mph 14.0 mph 86% 0.24 in
08:26 63.6 °F 60.0 °F 30.09 in North 7.0 mph 10.0 mph 88% 0.08 in
08:27 63.6 °F 60.0 °F 30.09 in NW 6.0 mph 10.0 mph 88% 0.08 in
08:28 63.5 °F 59.9 °F 30.09 in WNW 6.0 mph 10.0 mph 88% 0.07 in
08:32 63.1 °F 60.1 °F 30.09 in NNW 6.0 mph 10.0 mph 90% 1.63 in
08:33 63.0 °F 60.0 °F 30.09 in NNW 7.0 mph 11.0 mph 90% 1.04 in
08:37 62.7 °F 60.0 °F 30.09 in WNW 5.0 mph 13.0 mph 91% 0.22 in
08:42 62.4 °F 60.0 °F 30.10 in NNW 5.0 mph 7.0 mph 92% 0.09 in
08:47 62.3 °F 60.0 °F 30.10 in NNW 5.0 mph 8.0 mph 92% 0.07 in
08:52 62.1 °F 60.1 °F 30.09 in NNW 6.0 mph 8.0 mph 93% 0.07 in
08:54 62.1 °F 60.1 °F 30.09 in NW 4.0 mph 8.0 mph 93% 0.06 in
08:56 62.0 °F 60.0 °F 30.09 in NNE 5.0 mph 8.0 mph 93% 0.06 in
08:58 62.0 °F 60.0 °F 30.09 in NNW 4.0 mph 8.0 mph 93% 0.19 in
08:59 61.9 °F 59.9 °F 30.09 in NNW 6.0 mph 8.0 mph 93% 0.27 in
09:03 61.9 °F 60.2 °F 30.09 in NW 6.0 mph 8.0 mph 94% 0.27 in
09:08 61.8 °F 60.1 °F 30.09 in North 5.0 mph 7.0 mph 94% 0.08 in
09:13 61.7 °F 60.0 °F 30.11 in NNW 2.0 mph 5.0 mph 94% 0.08 in
09:18 61.8 °F 59.8 °F 30.09 in NE 6.0 mph 7.0 mph 93% 0.06 in
09:23 61.9 °F 59.5 °F 30.07 in NE 1.0 mph 7.0 mph 92% 0.05 in
09:24 61.9 °F 59.5 °F 30.07 in East 3.0 mph 7.0 mph 92% 0.05 in
09:29 61.8 °F 59.8 °F 30.07 in ESE 3.0 mph 5.0 mph 93% 0.07 in
09:30 61.8 °F 59.8 °F 30.08 in East 6.0 mph 7.0 mph 93% 0.07 in
09:34 61.7 °F 59.7 °F 30.07 in ESE 2.0 mph 5.0 mph 93% 0.07 in
09:35 61.7 °F 59.7 °F 30.07 in ENE 2.0 mph 3.0 mph 93% 0.07 in
09:36 61.7 °F 59.7 °F 30.07 in NE 3.0 mph 3.0 mph 93% 0.07 in
09:41 61.5 °F 59.5 °F 30.07 in East 2.0 mph 4.0 mph 93% 0.05 in
09:46 61.5 °F 59.8 °F 30.09 in SE 7.0 mph 9.0 mph 94% 0.04 in
09:51 61.4 °F 60.0 °F 30.08 in ENE 4.0 mph 7.0 mph 95% 0.04 in
09:53 61.4 °F 60.0 °F 30.07 in ESE 3.0 mph 6.0 mph 95% 0.07 in
09:56 61.4 °F 60.0 °F 30.06 in ESE 4.0 mph 7.0 mph 95% 0.07 in
09:58 61.4 °F 60.0 °F 30.07 in SE 4.0 mph 5.0 mph 95% 0.07 in
10:03 61.4 °F 60.0 °F 30.09 in ESE 9.0 mph 9.0 mph 95% 0.08 in
10:08 61.4 °F 59.7 °F 30.09 in East 4.0 mph 10.0 mph 94% 0.08 in
10:13 61.4 °F 59.7 °F 30.10 in East 5.0 mph 6.0 mph 94% 0.10 in
10:18 61.4 °F 59.7 °F 30.08 in ESE 5.0 mph 6.0 mph 94% 0.10 in
10:23 61.4 °F 60.0 °F 30.06 in East 3.0 mph 7.0 mph 95% 0.08 in
10:28 61.4 °F 60.0 °F 30.07 in SE 4.0 mph 8.0 mph 95% 0.08 in
10:29 61.4 °F 60.0 °F 30.07 in SE 4.0 mph 8.0 mph 95% 0.08 in
10:34 61.5 °F 60.1 °F 30.07 in ESE 5.0 mph 7.0 mph 95% 0.05 in
10:36 61.6 °F 60.2 °F 30.07 in ESE 8.0 mph 8.0 mph 95% 0.05 in
10:41 61.7 °F 60.0 °F 30.07 in East 7.0 mph 12.0 mph 94% 0.05 in
10:46 61.8 °F 59.8 °F 30.08 in ESE 7.0 mph 12.0 mph 93% 0.06 in
10:51 61.9 °F 59.9 °F 30.07 in ESE 6.0 mph 7.0 mph 93% 0.06 in
10:56 62.0 °F 60.0 °F 30.07 in ESE 7.0 mph 10.0 mph 93% 0.04 in
10:57 62.0 °F 60.0 °F 30.07 in East 5.0 mph 10.0 mph 93% 0.04 in
10:58 62.1 °F 60.1 °F 30.07 in East 5.0 mph 9.0 mph 93% 0.04 in
11:02 62.2 °F 60.2 °F 30.07 in ESE 5.0 mph 8.0 mph 93% 0.00 in
11:07 62.4 °F 60.3 °F 30.06 in ENE 7.0 mph 7.0 mph 93% 0.00 in
11:08 62.4 °F 60.3 °F 30.06 in ENE 7.0 mph 7.0 mph 93% 0.00 in
11:12 62.7 °F 60.7 °F 30.06 in East 2.0 mph 6.0 mph 93% 0.00 in
11:13 62.8 °F 60.8 °F 30.06 in ENE 2.0 mph 4.0 mph 93% 0.00 in
11:18 63.1 °F 60.7 °F 30.06 in East 4.0 mph 8.0 mph 92% 0.00 in
11:23 63.3 °F 60.6 °F 30.06 in ENE 4.0 mph 6.0 mph 91% 0.00 in
11:28 63.5 °F 61.1 °F 30.06 in ENE 4.0 mph 6.0 mph 92% 0.00 in
11:29 63.6 °F 61.2 °F 30.06 in ENE 6.0 mph 6.0 mph 92% 0.00 in
11:31 63.6 °F 61.2 °F 30.06 in ESE 6.0 mph 6.0 mph 92% 0.00 in
11:34 63.8 °F 61.4 °F 30.06 in SE 7.0 mph 8.0 mph 92% 0.00 in
11:36 63.9 °F 61.2 °F 30.06 in East 5.0 mph 8.0 mph 91% 0.00 in
11:39 64.0 °F 61.6 °F 30.06 in ESE 6.0 mph 8.0 mph 92% 0.00 in
11:41 64.0 °F 61.3 °F 30.06 in ESE 5.0 mph 8.0 mph 91% 0.00 in
11:46 64.3 °F 61.3 °F 30.06 in East 3.0 mph 5.0 mph 90% 0.00 in
11:51 64.7 °F 61.4 °F 30.05 in SE 6.0 mph 8.0 mph 89% 0.00 in
11:52 64.7 °F 61.4 °F 30.05 in SE 6.0 mph 8.0 mph 89% 0.00 in
11:57 65.1 °F 61.8 °F 30.05 in SE 4.0 mph 7.0 mph 89% 0.00 in
11:58 65.1 °F 61.8 °F 30.05 in ESE 9.0 mph 9.0 mph 89% 0.00 in
12:02 65.3 °F 61.3 °F 30.05 in SE 9.0 mph 9.0 mph 87% 0.00 in
12:08 65.5 °F 61.2 °F 30.04 in ESE 5.0 mph 8.0 mph 86% 0.00 in
12:13 65.9 °F 61.3 °F 30.04 in SE 5.0 mph 7.0 mph 85% 0.00 in
12:14 66.0 °F 61.0 °F 30.04 in SE 4.0 mph 8.0 mph 84% 0.00 in
12:20 66.5 °F 61.2 °F 30.04 in SE 8.0 mph 10.0 mph 83% 0.00 in
12:25 66.8 °F 61.8 °F 30.04 in SE 6.0 mph 9.0 mph 84% 0.00 in
12:28 67.0 °F 61.7 °F 30.04 in SE 4.0 mph 6.0 mph 83% 0.00 in
12:30 67.2 °F 61.9 °F 30.04 in East 6.0 mph 7.0 mph 83% 0.00 in
12:31 67.3 °F 61.6 °F 30.04 in ESE 8.0 mph 9.0 mph 82% 0.00 in
12:35 67.5 °F 62.5 °F 30.05 in SE 6.0 mph 8.0 mph 84% 0.00 in
12:37 67.8 °F 62.1 °F 30.04 in SE 7.0 mph 11.0 mph 82% 0.00 in
12:42 68.3 °F 62.6 °F 30.04 in ESE 9.0 mph 12.0 mph 82% 0.00 in
12:47 68.7 °F 62.6 °F 30.03 in ESE 8.0 mph 14.0 mph 81% 0.00 in
12:52 69.2 °F 63.1 °F 30.04 in SE 9.0 mph 16.0 mph 81% 0.00 in
12:53 69.2 °F 63.1 °F 30.04 in SE 6.0 mph 16.0 mph 81% 0.00 in
12:57 69.7 °F 63.3 °F 30.04 in ESE 10.0 mph 12.0 mph 80% 0.00 in
12:59 69.8 °F 63.0 °F 30.03 in ESE 12.0 mph 13.0 mph 79% 0.00 in
13:04 70.2 °F 63.0 °F 30.03 in SE 10.0 mph 14.0 mph 78% 0.00 in
13:09 70.6 °F 62.7 °F 30.03 in ESE 8.0 mph 15.0 mph 76% 0.00 in
13:14 70.8 °F 62.9 °F 30.03 in SE 8.0 mph 12.0 mph 76% 0.00 in
13:19 70.8 °F 62.9 °F 30.03 in SE 8.0 mph 14.0 mph 76% 0.00 in
13:24 70.8 °F 63.2 °F 30.02 in ESE 9.0 mph 13.0 mph 77% 0.00 in
13:33 71.2 °F 63.3 °F 30.02 in ESE 11.0 mph 11.0 mph 76% 0.00 in
13:35 71.3 °F 64.1 °F 30.02 in SE 6.0 mph 11.0 mph 78% 0.00 in
13:38 71.5 °F 63.2 °F 30.02 in ESE 8.0 mph 13.0 mph 75% 0.00 in
13:43 71.8 °F 63.5 °F 30.02 in ESE 6.0 mph 14.0 mph 75% 0.00 in
13:48 72.2 °F 63.5 °F 30.01 in SE 8.0 mph 13.0 mph 74% 0.00 in
13:49 72.2 °F 63.5 °F 30.01 in SE 8.0 mph 13.0 mph 74% 0.00 in
13:54 72.3 °F 61.6 °F 30.01 in SE 11.0 mph 20.0 mph 69% 0.00 in
13:55 72.4 °F 61.7 °F 30.01 in ESE 9.0 mph 20.0 mph 69% 0.00 in
13:59 72.6 °F 62.3 °F 30.02 in ESE 8.0 mph 18.0 mph 70% 0.00 in
14:04 72.9 °F 61.3 °F 30.02 in SE 9.0 mph 16.0 mph 67% 0.00 in
14:09 72.9 °F 60.9 °F 30.01 in SE 5.0 mph 16.0 mph 66% 0.00 in
14:14 73.3 °F 60.4 °F 30.01 in SE 9.0 mph 16.0 mph 64% 0.00 in
14:19 73.3 °F 60.4 °F 30.00 in ESE 9.0 mph 15.0 mph 64% 0.00 in
14:24 73.7 °F 61.2 °F 30.00 in ESE 9.0 mph 16.0 mph 65% 0.00 in
14:29 73.7 °F 61.2 °F 30.00 in ESE 10.0 mph 18.0 mph 65% 0.00 in
14:30 73.8 °F 60.4 °F 30.00 in SE 16.0 mph 18.0 mph 63% 0.00 in
14:35 73.7 °F 60.8 °F 30.00 in ESE 12.0 mph 18.0 mph 64% 0.00 in
14:36 73.8 °F 61.3 °F 29.99 in ESE 15.0 mph 18.0 mph 65% 0.00 in
14:41 74.0 °F 60.6 °F 30.00 in SE 13.0 mph 18.0 mph 63% 0.00 in
14:46 74.1 °F 61.2 °F 29.99 in SE 7.0 mph 14.0 mph 64% 0.00 in
14:51 74.4 °F 61.4 °F 29.99 in SE 10.0 mph 15.0 mph 64% 0.00 in
14:52 74.4 °F 61.4 °F 29.99 in SSW 7.0 mph 15.0 mph 64% 0.00 in
14:56 74.9 °F 61.9 °F 29.99 in SE 14.0 mph 14.0 mph 64% 0.00 in
14:57 74.9 °F 61.5 °F 29.99 in ESE 10.0 mph 14.0 mph 63% 0.00 in
14:59 74.8 °F 60.5 °F 29.98 in SE 11.0 mph 17.0 mph 61% 0.00 in
15:04 74.7 °F 59.9 °F 29.99 in SE 17.0 mph 17.0 mph 60% 0.00 in
15:11 74.5 °F 60.2 °F 29.98 in SE 11.0 mph 17.0 mph 61% 0.00 in
15:16 74.6 °F 61.2 °F 29.98 in SE 9.0 mph 22.0 mph 63% 0.00 in
15:21 74.9 °F 60.1 °F 29.98 in SE 10.0 mph 16.0 mph 60% 0.00 in
15:22 74.9 °F 61.0 °F 29.98 in SSE 13.0 mph 16.0 mph 62% 0.00 in
15:27 75.3 °F 60.5 °F 29.97 in SE 8.0 mph 17.0 mph 60% 0.00 in
15:32 75.8 °F 62.3 °F 29.97 in SE 6.0 mph 14.0 mph 63% 0.00 in
15:33 75.9 °F 62.4 °F 29.97 in ESE 14.0 mph 14.0 mph 63% 0.00 in
15:37 75.8 °F 60.9 °F 29.97 in ESE 12.0 mph 21.0 mph 60% 0.00 in
15:38 75.7 °F 60.8 °F 29.96 in SE 20.0 mph 21.0 mph 60% 0.00 in
15:43 75.5 °F 60.2 °F 29.97 in ESE 17.0 mph 20.0 mph 59% 0.00 in
15:45 75.5 °F 60.2 °F 29.97 in ESE 15.0 mph 18.0 mph 59% 0.00 in
15:48 75.5 °F 60.7 °F 29.97 in SE 13.0 mph 18.0 mph 60% 0.00 in
15:53 76.1 °F 61.2 °F 29.96 in ESE 7.0 mph 15.0 mph 60% 0.00 in
15:55 76.2 °F 60.8 °F 29.97 in ESE 20.0 mph 20.0 mph 59% 0.00 in
15:56 76.2 °F 61.8 °F 29.97 in SE 13.0 mph 20.0 mph 61% 0.00 in
16:01 76.1 °F 61.2 °F 29.97 in SE 11.0 mph 21.0 mph 60% 0.00 in
16:09 75.6 °F 60.3 °F 29.96 in SE 11.0 mph 21.0 mph 59% 0.00 in
16:17 75.8 °F 60.9 °F 29.97 in South 10.0 mph 17.0 mph 60% 0.00 in
16:18 75.8 °F 61.9 °F 29.97 in SSE 13.0 mph 17.0 mph 62% 0.00 in
16:23 76.2 °F 61.3 °F 29.96 in SE 15.0 mph 20.0 mph 60% 0.00 in
16:28 76.4 °F 62.0 °F 29.96 in SE 11.0 mph 17.0 mph 61% 0.00 in
16:29 76.4 °F 62.0 °F 29.96 in SE 12.0 mph 16.0 mph 61% 0.00 in
16:30 76.4 °F 62.4 °F 29.96 in SE 11.0 mph 16.0 mph 62% 0.00 in
16:34 76.1 °F 61.2 °F 29.96 in SSE 12.0 mph 19.0 mph 60% 0.00 in
16:35 76.1 °F 62.2 °F 29.96 in South 13.0 mph 14.0 mph 62% 0.00 in
16:36 76.1 °F 62.2 °F 29.95 in SSE 15.0 mph 17.0 mph 62% 0.00 in
16:40 76.2 °F 62.7 °F 29.95 in SE 13.0 mph 14.0 mph 63% 0.00 in
16:45 76.2 °F 62.2 °F 29.95 in SSE 15.0 mph 18.0 mph 62% 0.00 in
16:50 75.7 °F 61.3 °F 29.95 in SE 17.0 mph 23.0 mph 61% 0.00 in
16:52 75.6 °F 61.2 °F 29.95 in SE 11.0 mph 23.0 mph 61% 0.00 in
16:55 75.5 °F 61.1 °F 29.96 in SSE 14.0 mph 20.0 mph 61% 0.00 in
17:00 75.3 °F 60.5 °F 29.96 in SE 11.0 mph 23.0 mph 60% 0.00 in
17:06 75.3 °F 60.9 °F 29.96 in SE 10.0 mph 14.0 mph 61% 0.00 in
17:11 75.3 °F 61.8 °F 29.96 in South 14.0 mph 15.0 mph 63% 0.00 in
17:16 75.2 °F 61.3 °F 29.97 in SE 10.0 mph 16.0 mph 62% 0.00 in
17:21 75.2 °F 61.3 °F 29.97 in SSE 9.0 mph 20.0 mph 62% 0.00 in
17:26 75.2 °F 60.8 °F 29.97 in South 13.0 mph 18.0 mph 61% 0.00 in
17:31 75.1 °F 61.7 °F 29.98 in SE 8.0 mph 16.0 mph 63% 0.00 in
17:32 75.1 °F 61.7 °F 29.98 in SE 12.0 mph 16.0 mph 63% 0.00 in
17:37 75.2 °F 62.2 °F 29.98 in South 8.0 mph 15.0 mph 64% 0.00 in
17:42 75.6 °F 62.6 °F 29.98 in SSE 8.0 mph 14.0 mph 64% 0.00 in
17:47 76.0 °F 62.5 °F 29.98 in South 10.0 mph 11.0 mph 63% 0.00 in
17:52 75.9 °F 62.4 °F 29.99 in SE 9.0 mph 15.0 mph 63% 0.00 in
17:57 75.5 °F 62.0 °F 29.98 in SE 11.0 mph 16.0 mph 63% 0.00 in
17:58 75.5 °F 62.0 °F 29.98 in SSE 10.0 mph 16.0 mph 63% 0.00 in
18:03 75.2 °F 62.2 °F 29.98 in South 5.0 mph 10.0 mph 64% 0.00 in
18:08 74.9 °F 62.3 °F 29.97 in SE 7.0 mph 13.0 mph 65% 0.00 in
18:13 74.8 °F 63.1 °F 29.98 in SSE 6.0 mph 16.0 mph 67% 0.00 in
18:20 74.7 °F 62.6 °F 29.98 in SE 8.0 mph 10.0 mph 66% 0.00 in
18:21 74.7 °F 62.6 °F 29.98 in SSE 7.0 mph 10.0 mph 66% 0.00 in
18:26 74.6 °F 63.8 °F 29.98 in SE 6.0 mph 8.0 mph 69% 0.00 in
18:27 74.6 °F 63.8 °F 29.98 in SSE 6.0 mph 6.0 mph 69% 0.00 in
18:33 74.5 °F 62.8 °F 29.99 in SE 6.0 mph 8.0 mph 67% 0.00 in
18:34 74.5 °F 62.8 °F 29.99 in SE 6.0 mph 8.0 mph 67% 0.00 in
18:37 74.5 °F 62.8 °F 29.99 in SSE 8.0 mph 9.0 mph 67% 0.00 in
18:42 74.5 °F 63.3 °F 29.98 in ESE 7.0 mph 8.0 mph 68% 0.00 in
18:47 74.5 °F 63.3 °F 29.98 in SE 5.0 mph 8.0 mph 68% 0.00 in
18:52 74.4 °F 63.6 °F 29.99 in SE 3.0 mph 7.0 mph 69% 0.00 in
18:53 74.4 °F 63.6 °F 29.99 in SSE 4.0 mph 5.0 mph 69% 0.00 in
18:57 74.5 °F 63.7 °F 29.99 in ESE 6.0 mph 6.0 mph 69% 0.00 in
18:58 74.4 °F 63.6 °F 29.99 in SE 4.0 mph 6.0 mph 69% 0.00 in
19:02 74.5 °F 63.7 °F 29.99 in SE 3.0 mph 6.0 mph 69% 0.00 in
19:03 74.5 °F 63.7 °F 29.99 in SE 5.0 mph 5.0 mph 69% 0.00 in
19:08 74.4 °F 64.0 °F 29.99 in SSE 4.0 mph 6.0 mph 70% 0.00 in
19:09 74.4 °F 64.0 °F 29.99 in SSE 5.0 mph 7.0 mph 70% 0.00 in
19:14 74.4 °F 63.2 °F 29.99 in ESE 3.0 mph 3.0 mph 68% 0.00 in
19:19 74.4 °F 63.6 °F 29.99 in SE 4.0 mph 5.0 mph 69% 0.00 in
19:24 74.4 °F 63.2 °F 29.99 in SSW 1.0 mph 5.0 mph 68% 0.00 in
19:26 74.4 °F 63.6 °F 29.99 in SE 3.0 mph 4.0 mph 69% 0.00 in
19:32 74.5 °F 63.3 °F 29.98 in SE 5.0 mph 5.0 mph 68% 0.00 in
19:34 74.5 °F 63.3 °F 29.99 in ESE 6.0 mph 6.0 mph 68% 0.00 in
19:35 74.5 °F 63.7 °F 29.99 in SSE 3.0 mph 6.0 mph 69% 0.00 in
19:41 74.3 °F 63.5 °F 29.98 in SE 4.0 mph 7.0 mph 69% 0.00 in
19:42 74.2 °F 63.4 °F 29.98 in SE 4.0 mph 6.0 mph 69% 0.00 in
19:49 73.7 °F 63.3 °F 29.98 in ESE 4.0 mph 5.0 mph 70% 0.00 in
19:54 73.4 °F 63.4 °F 29.98 in ESE 4.0 mph 4.0 mph 71% 0.00 in
19:55 73.3 °F 63.3 °F 29.98 in ESE 3.0 mph 4.0 mph 71% 0.00 in
19:56 73.2 °F 63.6 °F 29.98 in SE 4.0 mph 4.0 mph 72% 0.00 in
20:00 72.9 °F 63.3 °F 29.98 in ESE 2.0 mph 4.0 mph 72% 0.00 in
20:01 72.9 °F 63.3 °F 29.98 in SE 2.0 mph 3.0 mph 72% 0.00 in
20:06 72.5 °F 63.4 °F 29.98 in SE 3.0 mph 4.0 mph 73% 0.00 in
20:11 72.0 °F 63.7 °F 29.97 in SE 4.0 mph 5.0 mph 75% 0.00 in
20:16 71.6 °F 63.3 °F 29.97 in ESE 4.0 mph 6.0 mph 75% 0.00 in
20:22 71.3 °F 63.3 °F 29.97 in SE 4.0 mph 6.0 mph 76% 0.00 in
20:27 71.1 °F 63.5 °F 29.97 in SE 4.0 mph 6.0 mph 77% 0.00 in
20:32 71.0 °F 63.4 °F 29.97 in SE 7.0 mph 7.0 mph 77% 0.00 in
20:33 71.0 °F 63.1 °F 29.97 in SE 6.0 mph 8.0 mph 76% 0.00 in
20:36 71.1 °F 63.2 °F 29.96 in SE 6.0 mph 6.0 mph 76% 0.00 in
20:37 71.2 °F 63.3 °F 29.96 in SE 5.0 mph 7.0 mph 76% 0.00 in
20:42 71.2 °F 63.3 °F 29.96 in SE 6.0 mph 6.0 mph 76% 0.00 in
20:47 71.0 °F 63.1 °F 29.96 in SE 7.0 mph 7.0 mph 76% 0.00 in
20:52 71.1 °F 63.2 °F 29.96 in SE 3.0 mph 7.0 mph 76% 0.00 in
20:54 71.0 °F 63.1 °F 29.96 in SE 6.0 mph 8.0 mph 76% 0.00 in
20:57 70.9 °F 63.3 °F 29.96 in SE 6.0 mph 8.0 mph 77% 0.00 in
20:58 70.9 °F 63.3 °F 29.96 in SE 5.0 mph 7.0 mph 77% 0.00 in
21:03 70.8 °F 63.2 °F 29.96 in SE 6.0 mph 6.0 mph 77% 0.00 in
21:08 70.7 °F 63.1 °F 29.95 in SE 4.0 mph 7.0 mph 77% 0.00 in
21:13 70.7 °F 63.1 °F 29.95 in SE 5.0 mph 8.0 mph 77% 0.00 in
21:18 70.6 °F 63.0 °F 29.96 in SE 5.0 mph 8.0 mph 77% 0.00 in
21:23 70.5 °F 63.3 °F 29.96 in SE 4.0 mph 6.0 mph 78% 0.00 in
21:28 70.3 °F 63.1 °F 29.96 in SE 5.0 mph 6.0 mph 78% 0.00 in
21:32 70.3 °F 63.1 °F 29.96 in East 6.0 mph 7.0 mph 78% 0.00 in
21:34 70.2 °F 63.4 °F 29.96 in SE 5.0 mph 7.0 mph 79% 0.00 in
21:35 70.1 °F 63.3 °F 29.95 in SE 5.0 mph 7.0 mph 79% 0.00 in
21:38 70.0 °F 63.2 °F 29.95 in SE 4.0 mph 6.0 mph 79% 0.00 in
21:43 69.9 °F 63.1 °F 29.95 in SE 4.0 mph 7.0 mph 79% 0.00 in
21:44 69.9 °F 63.1 °F 29.95 in SSE 6.0 mph 7.0 mph 79% 0.00 in
21:49 69.9 °F 63.1 °F 29.95 in SE 6.0 mph 7.0 mph 79% 0.00 in
21:50 69.9 °F 63.1 °F 29.95 in SE 6.0 mph 8.0 mph 79% 0.00 in
21:54 69.7 °F 63.3 °F 29.94 in SE 5.0 mph 8.0 mph 80% 0.00 in
21:55 69.7 °F 63.3 °F 29.94 in SE 5.0 mph 8.0 mph 80% 0.00 in
21:58 69.6 °F 63.2 °F 29.94 in SE 9.0 mph 9.0 mph 80% 0.00 in
22:00 69.6 °F 63.2 °F 29.94 in ESE 6.0 mph 9.0 mph 80% 0.00 in
22:04 69.4 °F 63.0 °F 29.94 in SE 6.0 mph 9.0 mph 80% 0.00 in
22:09 69.3 °F 63.2 °F 29.94 in SE 6.0 mph 12.0 mph 81% 0.00 in
22:14 69.2 °F 63.1 °F 29.94 in SE 6.0 mph 8.0 mph 81% 0.00 in
22:19 69.1 °F 63.0 °F 29.94 in ESE 5.0 mph 8.0 mph 81% 0.00 in
22:24 69.1 °F 63.0 °F 29.95 in SE 3.0 mph 6.0 mph 81% 0.00 in
22:25 69.1 °F 63.0 °F 29.95 in SE 3.0 mph 6.0 mph 81% 0.00 in
22:29 68.8 °F 62.7 °F 29.95 in SE 5.0 mph 6.0 mph 81% 0.00 in
22:30 68.8 °F 63.1 °F 29.95 in SE 4.0 mph 6.0 mph 82% 0.00 in
22:35 68.8 °F 63.1 °F 29.95 in SE 5.0 mph 6.0 mph 82% 0.00 in
22:36 68.8 °F 63.1 °F 29.95 in ESE 5.0 mph 6.0 mph 82% 0.00 in
22:43 68.8 °F 63.1 °F 29.95 in SE 3.0 mph 6.0 mph 82% 0.00 in
22:48 68.8 °F 63.1 °F 29.95 in SSE 4.0 mph 4.0 mph 82% 0.00 in
22:53 68.6 °F 62.9 °F 29.96 in SE 3.0 mph 4.0 mph 82% 0.00 in
22:54 68.6 °F 62.9 °F 29.96 in SE 2.0 mph 4.0 mph 82% 0.00 in
22:58 68.4 °F 62.7 °F 29.96 in SE 3.0 mph 4.0 mph 82% 0.00 in
22:59 68.4 °F 62.7 °F 29.96 in SSE 3.0 mph 4.0 mph 82% 0.00 in
23:03 68.2 °F 62.8 °F 29.96 in SE 3.0 mph 4.0 mph 83% 0.00 in
23:08 68.2 °F 62.8 °F 29.95 in SE 5.0 mph 6.0 mph 83% 0.00 in
23:14 68.3 °F 62.9 °F 29.96 in SE 3.0 mph 6.0 mph 83% 0.00 in
23:19 68.3 °F 62.9 °F 29.96 in SE 5.0 mph 5.0 mph 83% 0.00 in
23:24 68.2 °F 62.8 °F 29.96 in SSE 3.0 mph 5.0 mph 83% 0.00 in
23:29 68.3 °F 62.9 °F 29.96 in SSE 5.0 mph 5.0 mph 83% 0.00 in
23:30 68.3 °F 62.9 °F 29.96 in SE 4.0 mph 6.0 mph 83% 0.00 in
23:34 68.2 °F 62.8 °F 29.96 in SE 3.0 mph 6.0 mph 83% 0.00 in
23:36 68.2 °F 62.8 °F 29.97 in SE 3.0 mph 5.0 mph 83% 0.00 in
23:41 68.1 °F 63.1 °F 29.96 in SE 4.0 mph 5.0 mph 84% 0.00 in
23:42 68.1 °F 63.1 °F 29.96 in SE 5.0 mph 5.0 mph 84% 0.00 in
23:52 68.1 °F 63.1 °F 29.96 in SE 3.0 mph 6.0 mph 84% 0.00 in
23:54 68.0 °F 63.0 °F 29.96 in ESE 4.0 mph 5.0 mph 84% 0.00 in
23:57 67.8 °F 62.8 °F 29.96 in ESE 6.0 mph 6.0 mph 84% 0.00 in
23:59 67.8 °F 62.8 °F 29.96 in ESE 5.0 mph 6.0 mph 84% 0.00 in
Compliments of Weather Underground